Location: Willingham
(52.3167°N, 0.0667°E)
Time: 22:07:33
(UTC+00:00)

Cosmos 1315 Rocket - Pass Details

Date: 19 May 2025
Orbit: 498 x 525 km, 81.2° (Epoch: 18 June)

Event Time Altitude Azimuth Distance (km) Brightness Sun altitude
Exits shadow 20:55:04 10° 137° (SE) 1,769 4.7 -7.7°
Maximum altitude 20:57:56 20° 89° (E) 1,260 4.3 -8.0°
Drops below altitude 10° 21:00:49 10° 42° (NE) 1,775 5.5 -8.3°
Sets 21:03:22 0° 25° (NNE) 2,667 6.7 -8.5°
